Location: Bamobli
(6.6379°N, 10.9396°W)
Time: 01:51:21
(UTC+00:00)

Envisat - Pass Details

Date: 10 March 2021
Orbit: 764 x 766 km, 98.1° (Epoch: 11 April)

Event Time Altitude Azimuth Distance (km) Brightness Sun altitude
Rises 05:48:55 0° 17° (NNE) 3,216 6.4 -16.6°
Reaches altitude 10° 05:51:14 10° 21° (NNE) 2,291 5.7 -16.0°
Maximum altitude 05:56:14 63° 102° (ESE) 846 3.5 -14.8°
Drops below altitude 10° 06:01:14 10° 183° (S) 2,295 5.5 -13.6°
Sets 06:03:33 0° 186° (S) 3,221 6.2 -13.0°
